Weather History for Blacksburg, VA

Change the Weather History Date:

Friday, September 20, 2013

  Actual Average Record
Temperature  
Mean Temperature 68 °F 62 °F  
Max Temperature 73 °F 74 °F 88 °F (1954)
Min Temperature 62 °F 49 °F 39 °F (1962)
Degree Days  
Heating Degree Days 0 5  
Month to date heating degree days 46 47  
Since 1 July heating degree days 69 65  
Cooling Degree Days 3 1  
Month to date cooling degree days 55 49  
Year to date cooling degree days 561 561  
Growing Degree Days 18 (Base 50)    
Moisture  
Dew Point 66 °F    
Average Humidity 92    
Maximum Humidity 100    
Minimum Humidity 84    
Precipitation  
Precipitation 0.28 in 0.10 in 1.35 in (1969)
Month to date precipitation 0.31 2.09  
Year to date precipitation 39.86 31.28  
Snow  
Snow 0.00 in - - ()
Month to date snowfall 0.0  
Since 1 July snowfall 0.0  
Since 1 September snowfall 0.0  
Snow Depth 0.00 in    
Sea Level Pressure  
Sea Level Pressure 30.11 in    
Wind  
Wind Speed 3 mph (East)    
Max Wind Speed 9 mph    
Max Gust Speed -    
Visibility 6 miles    
Events Rain    
T = Trace of Precipitation, MM = Missing Value Source: NWS Daily Summary

Daily Weather History Graph

Daily Weather History Graph

Search for Another Location

Airport:

Trip Planner

Search our weather history database for the weather conditions in past years. The results will help you decide how hot, cold, wet, or windy it might be!

Date:

Astronomy

Sep. 20, 2013 Rise Set
Actual Time 7:08 AM EDT 7:21 PM EDT
Civil Twilight 6:41 AM EDT 7:47 PM EDT
Nautical Twilight 6:11 AM EDT 8:17 PM EDT
Astronomical Twilight 5:40 AM EDT 8:48 PM EDT
Moon 7:57 PM EDT (9/20) 8:18 AM EDT (9/20)
Length of Visible Light 13h 05m
Length of Day
12h 13m
Full, 98% of the Moon is Illuminated
Sep 20
Full
Sep 26
Last Quarter
Oct 4
New
Oct 11
First Quarter
Oct 18
Full

Hourly Weather History & Observations

Time (EDT) Temp. Dew Point Humidity Pressure Visibility Wind Dir Wind Speed Gust Speed Precip Events Conditions
12:15 AM 64.4 °F 64.4 °F 100% 30.16 in 7.0 mi Calm Calm - N/A   Light Drizzle
12:35 AM 64.4 °F 64.4 °F 100% 30.16 in 7.0 mi Calm Calm - N/A   Overcast
12:55 AM 64.4 °F 64.4 °F 100% 30.16 in 7.0 mi Calm Calm - N/A   Overcast
1:15 AM 64.4 °F 64.4 °F 100% 30.16 in 7.0 mi Calm Calm - N/A   Overcast
1:35 AM 64.4 °F 64.4 °F 100% 30.16 in 7.0 mi Calm Calm - N/A   Overcast
1:55 AM 64.4 °F 64.4 °F 100% 30.16 in 7.0 mi Calm Calm - N/A   Overcast
2:15 AM 64.4 °F 64.4 °F 100% 30.16 in 5.0 mi Calm Calm - N/A   Mostly Cloudy
2:35 AM 64.4 °F 64.4 °F 100% 30.15 in 5.0 mi Calm Calm - N/A   Overcast
2:55 AM 64.4 °F 64.4 °F 100% 30.15 in 1.2 mi Calm Calm - 0.19 in Rain Heavy Rain
3:15 AM 64.4 °F 64.4 °F 100% 30.15 in 3.0 mi Calm Calm - 0.05 in Rain Light Rain
3:35 AM 64.4 °F 64.4 °F 100% 30.14 in 2.5 mi Calm Calm - 0.05 in   Drizzle
3:55 AM 64.4 °F 64.4 °F 100% 30.15 in 3.0 mi Calm Calm - 0.05 in   Drizzle
4:15 AM 64.4 °F 64.4 °F 100% 30.14 in 2.5 mi Calm Calm - 0.01 in   Drizzle
4:35 AM 64.4 °F 64.4 °F 100% 30.14 in 2.5 mi Calm Calm - 0.01 in   Drizzle
4:55 AM 64.4 °F 64.4 °F 100% 30.14 in 2.5 mi Calm Calm - 0.01 in   Overcast
5:15 AM 64.4 °F 64.4 °F 100% 30.13 in 2.5 mi Calm Calm - N/A   Overcast
5:35 AM 64.4 °F 64.4 °F 100% 30.13 in 1.0 mi Calm Calm - N/A   Overcast
5:55 AM 64.4 °F 64.4 °F 100% 30.13 in 1.2 mi Calm Calm - N/A Rain Light Rain
6:15 AM 64.4 °F 64.4 °F 100% 30.13 in 2.0 mi Calm Calm - N/A Rain Light Rain
6:35 AM 64.4 °F 64.4 °F 100% 30.13 in 2.0 mi Calm Calm - 0.01 in   Drizzle
6:55 AM 64.4 °F 64.4 °F 100% 30.13 in 2.5 mi Calm Calm - 0.01 in   Overcast
7:15 AM 64.4 °F 64.4 °F 100% 30.13 in 2.0 mi Calm Calm - N/A   Overcast
7:35 AM 64.4 °F 64.4 °F 100% 30.13 in 2.5 mi Calm Calm - N/A Rain Rain
7:55 AM 64.4 °F 64.4 °F 100% 30.14 in 2.0 mi Calm Calm - N/A Rain Rain
8:15 AM 64.4 °F 64.4 °F 100% 30.13 in 1.2 mi Calm Calm - 0.01 in   Overcast
8:35 AM 64.4 °F 64.4 °F 100% 30.14 in 1.5 mi Calm Calm - 0.01 in   Overcast
8:55 AM 64.4 °F 64.4 °F 100% 30.14 in 1.8 mi Calm Calm - 0.01 in   Overcast
9:15 AM 64.4 °F 64.4 °F 100% 30.14 in 2.0 mi Calm Calm - N/A Rain Rain
9:35 AM 64.4 °F 64.4 °F 100% 30.13 in 2.5 mi Calm Calm - N/A   Overcast
9:55 AM 64.4 °F 64.4 °F 100% 30.13 in 2.5 mi Calm Calm - N/A   Light Drizzle
10:15 AM 66.2 °F 66.2 °F 100% 30.14 in 2.5 mi Calm Calm - N/A   Overcast
10:35 AM 66.2 °F 66.2 °F 100% 30.14 in 2.5 mi Calm Calm - N/A Rain Light Rain
10:55 AM 66.2 °F 66.2 °F 100% 30.14 in 3.0 mi Calm Calm - N/A   Overcast
11:15 AM 66.2 °F 66.2 °F 100% 30.14 in 3.0 mi Calm Calm - N/A   Overcast
11:35 AM 66.2 °F 66.2 °F 100% 30.13 in 2.0 mi Calm Calm - N/A Rain Heavy Rain
11:55 AM 66.2 °F 66.2 °F 100% 30.14 in 2.0 mi NE 4.6 mph - N/A   Overcast
12:15 PM 66.2 °F 66.2 °F 100% 30.13 in 2.5 mi Calm Calm - 0.01 in   Overcast
12:35 PM 66.2 °F 66.2 °F 100% 30.13 in 5.0 mi East 3.5 mph - 0.01 in Rain Light Rain
12:55 PM 66.2 °F 66.2 °F 100% 30.12 in 7.0 mi Calm Calm - 0.01 in Rain Light Rain
1:15 PM 66.2 °F 66.2 °F 100% 30.11 in 7.0 mi Calm Calm - N/A   Overcast
1:35 PM 71.6 °F 68.0 °F 88% 30.11 in 10.0 mi Calm Calm - N/A   Scattered Clouds
1:55 PM 73.4 °F 68.0 °F 83% 30.10 in 7.0 mi North 3.5 mph - N/A   Clear
2:15 PM 71.6 °F 68.0 °F 88% 30.10 in 10.0 mi ENE 6.9 mph - N/A   Scattered Clouds
2:35 PM 71.6 °F 68.0 °F 88% 30.10 in 10.0 mi East 4.6 mph - N/A   Scattered Clouds
2:55 PM 71.6 °F 69.8 °F 94% 30.09 in 10.0 mi ESE 5.8 mph - N/A   Mostly Cloudy
3:15 PM 73.4 °F 69.8 °F 88% 30.07 in 10.0 mi ESE 6.9 mph - N/A   Scattered Clouds
3:35 PM 71.6 °F 68.0 °F 88% 30.07 in 10.0 mi ESE 6.9 mph - N/A   Scattered Clouds
3:55 PM 71.6 °F 68.0 °F 88% 30.06 in 7.0 mi East 6.9 mph - N/A   Scattered Clouds
4:15 PM 71.6 °F 68.0 °F 88% 30.06 in 7.0 mi ESE 4.6 mph - N/A   Scattered Clouds
4:35 PM 71.6 °F 68.0 °F 88% 30.06 in 7.0 mi SE 5.8 mph - N/A   Clear
4:55 PM 71.6 °F 69.8 °F 94% 30.05 in 10.0 mi East 8.1 mph - N/A   Clear
5:15 PM 71.6 °F 68.0 °F 88% 30.05 in 10.0 mi East 9.2 mph - N/A   Clear
5:35 PM 69.8 °F 68.0 °F 94% 30.05 in 10.0 mi ESE 6.9 mph - N/A   Clear
5:55 PM 69.8 °F 68.0 °F 94% 30.05 in 7.0 mi ESE 8.1 mph - N/A   Clear
6:15 PM 69.8 °F 68.0 °F 94% 30.05 in 10.0 mi ESE 6.9 mph - N/A   Clear
6:35 PM 68.0 °F 66.2 °F 94% 30.06 in 10.0 mi East 6.9 mph - N/A   Scattered Clouds
6:55 PM 66.2 °F 66.2 °F 100% 30.06 in 10.0 mi ESE 9.2 mph - N/A   Mostly Cloudy
7:15 PM 66.2 °F 66.2 °F 100% 30.06 in 10.0 mi East 8.1 mph - N/A   Overcast
7:35 PM 66.2 °F 66.2 °F 100% 30.06 in 10.0 mi East 8.1 mph - N/A   Overcast
7:55 PM 66.2 °F 66.2 °F 100% 30.07 in 10.0 mi East 5.8 mph - N/A   Overcast
8:15 PM 66.2 °F 66.2 °F 100% 30.07 in 10.0 mi ENE 5.8 mph - N/A   Overcast
8:35 PM 64.4 °F 64.4 °F 100% 30.07 in 10.0 mi East 4.6 mph - N/A   Overcast
8:55 PM 64.4 °F 64.4 °F 100% 30.08 in 10.0 mi East 4.6 mph - N/A   Overcast
9:15 PM 64.4 °F 64.4 °F 100% 30.07 in 7.0 mi ESE 5.8 mph - N/A   Overcast
9:35 PM 64.4 °F 64.4 °F 100% 30.07 in 10.0 mi ESE 4.6 mph - N/A   Overcast
9:55 PM 64.4 °F 64.4 °F 100% 30.06 in 10.0 mi East 4.6 mph - N/A   Overcast
10:15 PM 64.4 °F 64.4 °F 100% 30.06 in 10.0 mi Calm Calm - N/A   Overcast
10:35 PM 64.4 °F 64.4 °F 100% 30.05 in 10.0 mi ENE 4.6 mph - N/A   Overcast
10:55 PM 64.4 °F 64.4 °F 100% 30.05 in 10.0 mi Calm Calm - N/A   Overcast
11:15 PM 64.4 °F 64.4 °F 100% 30.05 in 10.0 mi Calm Calm - N/A   Overcast
11:35 PM 64.4 °F 64.4 °F 100% 30.04 in 10.0 mi Calm Calm - N/A   Overcast
11:55 PM 64.4 °F 64.4 °F 100% 30.04 in 10.0 mi Calm Calm - N/A   Overcast